Broomfield, CO

1:27 AM MST on November 22, 2017 (GMT -0700)
Jeffco

Weather History for KBJC - May, 2012

Change the Weather History Date:

Monday, May 21, 2012

  Actual Average Record
Temperature  
Mean Temperature 64 °F -  
Max Temperature 82 °F 70 °F 89 °F (2005)
Min Temperature 46 °F 46 °F 32 °F (2001)
Degree Days  
Heating Degree Days 1    
Growing Degree Days 14 (Base 50)    
Moisture  
Dew Point 32 °F    
Average Humidity 40    
Maximum Humidity 66    
Minimum Humidity 10    
Precipitation  
Precipitation 0.00 in - - ()
Sea Level Pressure  
Sea Level Pressure 30.18 in    
Wind  
Wind Speed 5 mph (SW)    
Max Wind Speed 9 mph    
Max Gust Speed -    
Visibility 10 miles    
Events      
Averages and records for this station are not official NWS values.
T = Trace of Precipitation, MM = Missing Value Source: NWS Daily Summary

Daily Weather History Graph

Daily Weather History Graph

Search for Another Location

Airport or City:

Trip Planner

Search our weather history database for the weather conditions in past years. The results will help you decide how hot, cold, wet, or windy it might be!

Date:

Astronomy

May. 21, 2012 Rise Set
Actual Time 5:40 AM MDT 8:14 PM MDT
Civil Twilight 5:08 AM MDT 8:45 PM MDT
Nautical Twilight 4:30 AM MDT 9:24 PM MDT
Astronomical Twilight 3:46 AM MDT 10:08 PM MDT
Moon 6:04 AM MDT (5/21) 9:07 PM MDT (5/21)
Length of Visible Light 15h 37m
Length of Day
14h 34m
New Moon, 1% of the Moon is Illuminated
May 21
New Moon
May 28
First Quarter
Jun 4
Full
Jun 11
Last Quarter
Jun 19
New

Hourly Weather History & Observations

Time (MDT) Temp. Windchill Dew Point Humidity Pressure Visibility Wind Dir Wind Speed Gust Speed Precip Events Conditions
12:13 AM 53.6 °F - 39.2 °F 58% 30.24 in 10.0 mi South 3.5 mph - N/A   Clear
12:33 AM 53.6 °F - 37.4 °F 54% 30.24 in 10.0 mi South 5.8 mph - N/A   Clear
12:52 AM 53.6 °F - 37.4 °F 54% 30.24 in 10.0 mi SW 4.6 mph - N/A   Clear
1:13 AM 51.8 °F - 37.4 °F 58% 30.24 in 10.0 mi WSW 8.1 mph - N/A   Clear
1:33 AM 51.8 °F - 37.4 °F 58% 30.23 in 10.0 mi WSW 8.1 mph - N/A   Clear
1:53 AM 50.0 °F - 37.4 °F 62% 30.23 in 10.0 mi WSW 8.1 mph - N/A   Clear
2:13 AM 51.8 °F - 37.4 °F 58% 30.23 in 10.0 mi WSW 5.8 mph - N/A   Clear
2:33 AM 53.6 °F - 35.6 °F 51% 30.23 in 10.0 mi Calm Calm - N/A   Clear
2:52 AM 55.4 °F - 35.6 °F 47% 30.23 in 10.0 mi Calm Calm - N/A   Clear
3:13 AM 53.6 °F - 35.6 °F 51% 30.22 in 10.0 mi Calm Calm - N/A   Clear
3:33 AM 55.4 °F - 33.8 °F 44% 30.23 in 10.0 mi NNW 5.8 mph - N/A   Clear
3:53 AM 51.8 °F - 35.6 °F 54% 30.23 in 10.0 mi North 8.1 mph - N/A   Clear
4:13 AM 51.8 °F - 35.6 °F 54% 30.23 in 10.0 mi North 4.6 mph - N/A   Clear
4:33 AM 51.8 °F - 37.4 °F 58% 30.23 in 10.0 mi North 4.6 mph - N/A   Clear
4:53 AM 51.8 °F - 37.4 °F 58% 30.23 in 10.0 mi North 4.6 mph - N/A   Clear
5:13 AM 50.0 °F - 37.4 °F 62% 30.23 in 10.0 mi Calm Calm - N/A   Clear
5:32 AM 48.2 °F - 37.4 °F 66% 30.22 in 10.0 mi West 3.5 mph - N/A   Clear
5:50 AM 48.2 °F - 37.4 °F 66% 30.23 in 60.0 mi West 4.6 mph - N/A   Scattered Clouds
5:53 AM 46.4 °F 45.2 °F 35.6 °F 66% 30.23 in 10.0 mi WSW 3.5 mph - N/A   Clear
6:50 AM 51.8 °F - 37.4 °F 58% 30.23 in 60.0 mi Calm Calm - N/A   Partly Cloudy
7:50 AM 57.2 °F - 39.2 °F 51% 30.23 in 70.0 mi South 3.5 mph - N/A   Partly Cloudy
8:53 AM 64.4 °F - 35.6 °F 34% 30.23 in 70.0 mi South 3.5 mph - N/A   Partly Cloudy
9:52 AM 71.6 °F - 35.6 °F 27% 30.22 in 70.0 mi Variable 3.5 mph - N/A   Partly Cloudy
10:52 AM 75.2 °F - 26.6 °F 17% 30.20 in 70.0 mi SE 6.9 mph - N/A   Partly Cloudy
11:50 AM 77.0 °F - 21.2 °F 12% 30.19 in 70.0 mi South 3.5 mph - N/A   Scattered Clouds
12:55 PM 80.6 °F - 21.2 °F 11% 30.17 in 70.0 mi SSE 6.9 mph - N/A   Scattered Clouds
1:50 PM 82.4 °F - 21.2 °F 10% 30.16 in 70.0 mi South 8.1 mph - N/A   Scattered Clouds
3:47 PM 82.4 °F - 21.2 °F 10% 30.13 in 70.0 mi SSE 9.2 mph - N/A   Mostly Cloudy
4:49 PM 82.4 °F - 21.2 °F 10% 30.09 in 60.0 mi South 6.9 mph - N/A   Mostly Cloudy
5:51 PM 82.4 °F - 19.4 °F 10% 30.08 in 60.0 mi Calm Calm - N/A   Scattered Clouds
6:46 PM 82.4 °F - 21.2 °F 10% 30.07 in 50.0 mi Calm Calm - N/A   Scattered Clouds
7:50 PM 77.0 °F - 26.6 °F 16% 30.08 in 50.0 mi ENE 4.6 mph - N/A   Scattered Clouds
8:46 PM 75.2 °F - 24.8 °F 15% 30.07 in 35.0 mi NE 4.6 mph - N/A   Partly Cloudy
9:55 PM 69.8 °F - 28.4 °F 21% 30.08 in 20.0 mi WNW 9.2 mph - N/A   Partly Cloudy
11:13 PM 64.4 °F - 30.2 °F 28% 30.06 in 10.0 mi WNW 6.9 mph - N/A   Clear
11:32 PM 64.4 °F - 30.2 °F 28% 30.05 in 10.0 mi West 3.5 mph - N/A   Clear
11:53 PM 59.0 °F - 33.8 °F 39% 30.06 in 10.0 mi SSE 5.8 mph - N/A   Clear